sat.trackr.live / text

‹ back to catalog

STARLINK-31008

NORAD 58636 · 2023-203U

PAYLOAD ACTIVE UNKNOWN

§ Identity

Operator
Country
US
Launch date
2023-12-23
Launch site
AFETR
Launch vehicle
Mass (kg)
RCS (m²)

Purposes: comms

External: N2YO · Heavens-Above · Gunter

§ Orbital elements

Epoch: 2026-05-24T21:42:45.839808Z

Period
94.27 min
Inclination
43.0042°
Eccentricity
0.0001025
Mean motion
15.27589436 rev/d
Perigee alt
482.3 km
Apogee alt
483.7 km
Semi-major
6,861.2 km
B*
-4.8181e-6
RAAN
357.0055°
Arg perigee
277.3944°
Mean anomaly
82.6791°
Rev number
13,644

§ Raw data

STARLINK-310081 58636U 23203U   26144.90469722 -.00000395  00000+0 -48181-5 0  99992 58636  43.0042 357.0055 0001025 277.3944  82.6791 15.27589436136443

JSON: /api/v1/satellites/58636 · /tle

For live sub-satellite position, see the globe view (requires WebGL).

§ Visibility from observer

Set your observer location to see the next 7 days of passes ≥ 10°. The values pass through the URL so the page stays shareable.

No JS? Fill the form by hand. The geolocation button needs JavaScript.